SCP
0 0 0 0 0 0 0 0 0 0 0 0 0 0 0 0 0 0 0 0 0 0 0 0 0 0 0 0 0 0 0 0 0 0 0 0 1 1 1 1 1 1 1 1
0 0 0 0 0 0 0 0 0 0 0 0 0 0 0 0 0 0 0 0 0 0 0 0 0 0 0 0 0 0 0 0 0 0 0 0 1 1 1 1 1 1 1 1
0 0 0 0 0 0 0 0 0 0 0 0 0 0 0 0 0 0 0 0 0 0 0 0 0 0 0 0 0 0 0 0 0 0 0 0 0 1 1 1 1 1 1 1
0 0 0 0 0 0 0 0 0 0 0 0 0 0 0 0 0 0 0 0 0 0 0 0 0 0 0 0 0 0 0 0 0 0 0 0 0 0 0 1 1 1 0 0
0 0 0 0 0 0 0 0 0 0 0 0 0 0 0 0 0 0 0 0 0 0 0 0 0 0 0 0 0 0 0 0 0 0 0 0 0 0 0 0 0 0 0 0
0 0 0 0 0 0 0 0 0 0 0 0 0 0 0 0 0 0 0 0 0 0 0 0 0 0 0 0 0 0 0 0 0 0 0 0 0 0 0 0 0 0 0 0
0 0 0 0 0 0 0 0 0 0 0 0 0 0 0 0 0 0 0 0 0 0 0 0 0 0 0 0 0 0 0 0 0 0 0 0 0 0 0 0 0 0 0 0
0 0 0 0 0 0 0 0 0 0 0 0 0 0 0 0 0 0 0 0 0 0 0 0 0 0 0 0 0 0 0 0 0 0 0 0 0 0 0 0 0 0 0 0
0 0 0 0 0 0 0 0 0 0 0 0 0 0 0 0 0 0 0 0 0 0 0 0 0 0 0 0 0 0 0 0 0 0 0 0 0 0 0 0 0 0 0 0
0 0 0 0 0 0 0 0 0 0 0 0 0 0 0 0 0 0 0 0 0 0 0 0 0 0 0 0 0 0 0 0 0 0 0 0 0 0 0 0 0 0 0 0
0 0 0 0 0 0 0 0 0 0 0 0 0 0 0 0 0 0 0 0 0 0 0 0 0 0 0 0 0 0 0 0 0 0 0 0 0 0 0 0 0 0 0 0
0 0 0 0 0 0 0 0 0 0 0 0 0 0 0 0 0 0 0 0 0 0 0 0 0 0 0 0 0 0 0 0 0 0 0 0 0 0 0 0 0 0 0 0
0 0 0 0 0 0 0 0 0 0 0 0 0 0 0 0 0 0 0 0 0 0 0 0 0 0 0 0 0 0 0 0 0 0 0 0 0 0 0 0 0 0 0 0
0 0 0 0 0 0 0 0 0 0 0 0 0 0 0 0 0 0 0 0 0 0 0 0 0 0 0 0 0 0 0 0 0 0 0 0 0 0 0 0 0 0 0 0
0 0 0 0 0 0 0 0 0 0 0 0 0 0 0 0 0 0 0 0 0 0 0 0 0 0 0 0 0 0 0 0 0 0 0 0 0 0 0 0 0 0 0 0
0 0 0 0 0 0 0 0 0 0 0 0 0 0 0 0 0 0 0 0 0 0 0 0 0 0 0 0 0 0 0 0 0 0 0 0 0 0 0 0 0 0 0 0
0 0 0 0 0 0 0 0 0 0 0 0 0 0 0 0 0 0 0 0 0 0 0 0 0 0 0 0 0 0 0 0 0 0 0 0 0 0 0 0 0 0 0 0
0 0 0 0 0 0 0 0 0 0 0 0 0 0 0 0 0 0 0 0 0 0 0 0 0 0 0 0 0 0 0 0 0 0 0 0 0 0 0 0 0 0 0 0
0 0 0 0 0 0 0 0 0 0 0 0 0 0 0 0 0 0 0 0 0 0 0 0 0 0 0 0 0 0 0 0 0 0 0 0 0 0 0 0 0 0 0 0
0 0 0 0 0 0 0 0 0 0 0 0 0 0 0 0 0 0 0 0 0 0 0 0 0 0 0 0 0 0 0 0 0 0 0 0 0 0 0 0 0 0 0 0
0 0 0 0 0 0 0 0 0 0 0 0 0 0 0 0 0 0 0 0 0 0 0 0 0 0 0 0 0 0 0 0 0 0 0 0 0 0 0 0 0 0 0 0
0 0 0 0 0 0 0 0 0 0 0 0 0 0 0 0 0 0 0 0 0 0 0 0 0 0 0 0 0 0 0 0 0 0 0 0 0 0 0 0 0 0 0 0
0 0 0 0 0 0 0 0 0 0 0 0 0 0 0 0 0 0 0 0 0 0 0 0 0 0 0 0 0 0 0 0 0 0 0 0 0 0 0 0 0 0 0 0
0 0 0 0 0 0 0 0 0 0 0 0 0 0 0 0 0 0 0 0 0 0 0 0 0 0 0 0 0 0 0 0 0 0 0 0 0 0 0 0 0 0 0 0
0 0 0 0 0 0 0 0 0 0 0 0 0 0 0 0 0 0 0 0 0 0 0 0 0 0 0 0 0 0 0 0 0 0 0 0 0 0 0 0 0 0 0 0
0 0 0 0 0 0 0 0 0 0 0 0 0 0 0 0 0 0 0 0 0 0 0 0 0 0 0 0 0 0 0 0 0 0 0 0 0 0 0 0 0 0 0 0
0 0 0 0 0 0 0 0 0 0 0 0 0 0 0 0 0 0 0 0 0 0 0 0 0 0 0 0 0 0 0 0 0 0 0 0 0 0 0 0 0 0 0 0
Wind_Speed
6 6 4 6 7 6 7 7 8 9 9 12 8 8 7 6 6 6 6 7 6 6 5 4 4 4 4 4 3 3 2 2 2 2 2 2 2 2 1 2 2 2 1 2
4 4 5 8 10 9 9 8 9 10 12 8 6 5 5 6 6 6 7 7 7 6 6 6 5 4 4 4 4 3 2 2 2 2 2 2 2 2 2 2 2 2 2 2
4 4 5 8 8 8 6 6 6 9 9 6 7 7 7 6 6 6 6 7 7 6 6 6 6 5 5 5 4 3 2 2 2 2 2 2 2 2 2 2 2 2 2 2
2 4 6 7 1 3 5 6 6 7 6 5 7 8 6 4 4 5 5 6 6 6 6 6 5 5 4 4 4 3 3 3 2 2 2 2 2 2 2 2 2 2 2 2
1 3 10 6 2 2 3 6 5 6 7 7 6 5 4 3 3 4 5 5 5 5 5 5 6 5 4 4 3 3 3 3 3 2 2 2 3 3 2 2 2 2 2 2
2 3 7 5 1 1 2 6 3 3 6 5 4 4 5 4 4 4 4 4 4 4 4 5 5 4 4 4 4 3 3 3 3 2 2 2 2 2 2 2 2 2 2 2
4 6 11 5 1 2 2 7 3 3 4 3 4 6 6 6 5 4 4 4 4 4 4 4 5 4 3 4 4 4 3 3 3 3 2 2 2 2 2 2 2 2 2 2
5 6 11 3 4 5 7 3 2 3 4 4 6 7 6 5 5 4 4 4 4 4 4 4 4 3 4 4 4 3 3 3 3 3 3 2 2 2 2 2 2 2 2 3
10 10 5 4 6 5 2 3 3 3 5 4 5 6 6 5 4 4 4 4 4 4 5 5 4 3 3 4 4 3 3 3 3 4 3 2 2 2 2 2 1 2 2 2
6 10 7 7 6 5 4 5 5 5 5 4 5 6 6 5 4 4 4 3 4 4 4 5 5 4 3 4 4 3 3 3 3 3 3 3 3 2 2 2 2 2 2 2
8 9 6 6 7 6 5 5 4 4 4 4 4 5 5 4 4 4 4 3 3 3 3 4 4 4 4 4 3 3 3 3 4 3 3 3 3 3 3 2 2 2 2 2
9 7 5 6 4 4 4 5 5 4 5 4 3 4 4 4 3 3 3 3 3 3 3 4 4 4 4 4 3 2 3 3 3 3 3 3 3 4 6 5 6 6 5 4
6 4 5 5 4 3 4 4 4 4 4 4 3 3 3 3 2 2 3 3 3 3 4 3 4 4 4 4 3 2 2 3 3 3 3 3 3 3 4 6 7 7 8 7
5 2 4 4 4 3 3 3 3 3 3 2 2 2 1 2 2 3 3 3 3 3 3 3 3 4 4 3 3 3 2 3 3 2 2 2 2 3 2 3 4 5 6 8
6 5 5 4 3 2 2 1 1 2 2 2 1 1 1 1 2 3 3 3 3 3 3 3 3 4 4 3 3 3 2 1 2 2 2 2 2 2 2 3 3 3 4 5
3 3 3 3 3 3 2 2 2 3 2 2 2 2 2 1 2 2 2 2 2 3 3 3 4 4 4 3 3 2 2 3 3 2 2 2 2 2 2 2 3 3 4 4
3 4 4 4 5 4 4 3 3 3 2 2 2 2 1 1 2 2 3 2 2 3 3 3 3 4 3 2 2 1 1 2 4 2 2 2 2 2 2 2 2 3 3 4
6 6 5 5 5 5 4 3 3 3 3 2 1 1 1 1 1 2 2 2 2 3 3 3 3 3 3 2 2 1 1 1 1 1 1 2 2 2 2 2 2 3 3 4
5 5 4 4 4 4 4 3 3 2 2 1 1 2 2 1 1 1 1 2 2 3 3 3 5 4 3 3 3 1 1 1 1 2 1 2 2 2 2 2 2 3 3 3
3 3 3 3 2 2 2 2 2 2 1 2 1 1 1 1 1 1 1 2 2 2 3 4 3 2 2 3 3 1 1 1 1 1 1 1 2 2 2 2 2 3 3 3
3 2 2 2 2 2 2 2 2 2 2 2 2 2 2 1 1 1 1 2 3 2 3 4 2 2 2 2 3 1 1 1 1 1 1 1 1 1 2 2 2 3 3 3
2 2 2 2 2 1 1 1 2 2 2 1 1 1 1 1 1 1 2 2 2 4 3 2 2 3 3 3 1 1 1 1 1 0 0 1 1 1 2 2 2 2 3 3
2 2 2 2 2 1 1 1 2 2 2 2 2 2 2 2 1 1 2 2 2 4 3 2 3 4 5 2 1 1 1 1 1 1 1 1 1 1 2 2 2 2 3 3
2 2 2 1 2 1 1 1 1 1 1 1 1 2 2 1 1 1 1 2 3 4 2 3 5 5 4 2 1 1 1 1 1 1 1 1 1 1 2 2 2 2 3 3
2 2 2 3 2 2 2 1 1 1 1 0 0 1 1 1 1 1 1 1 2 3 2 3 5 5 3 1 1 1 1 1 1 1 1 1 1 1 2 2 2 2 3 3
2 2 2 2 2 2 2 2 1 1 1 0 0 0 0 0 0 0 0 1 1 2 2 2 2 3 2 1 1 1 1 2 2 1 1 1 1 2 2 2 3 3 3 3
1 1 1 1 1 1 2 2 2 1 2 1 1 1 0 0 0 0 1 1 1 1 2 2 2 2 2 1 1 1 1 1 1 1 1 1 1 2 2 2 2 2 2 2
Wind_Direction
261 269 258 257 259 232 219 223 235 263 269 283 299 301 301 307 316 324 328 332 336 338 337 338 336 333 325 321 329 334 334 338 326 323 331 335 339 332 324 319 316 312 307 297
283 273 265 269 260 243 238 240 249 272 278 282 299 304 305 309 316 316 318 325 330 333 336 336 332 330 328 327 330 334 332 324 325 336 342 340 336 337 335 334 334 332 322 310
278 316 322 273 242 216 220 219 214 242 262 312 315 309 296 297 304 302 308 317 321 322 323 321 321 323 324 321 328 337 335 332 334 341 342 334 330 342 337 335 343 334 325 320
296 1 257 251 222 205 228 245 235 257 282 294 291 296 287 282 283 293 307 314 316 316 319 319 320 325 325 329 338 340 341 337 339 347 340 335 345 345 341 337 336 322 317 311
183 271 279 290 254 182 214 269 240 249 278 298 315 314 300 298 292 282 295 301 304 308 312 319 322 326 333 335 338 343 346 339 335 337 332 340 349 344 338 339 334 326 323 322
162 234 255 263 249 185 123 284 266 239 271 299 344 327 298 319 324 312 313 313 313 318 325 326 322 329 337 334 341 342 339 331 328 332 331 335 334 333 332 331 329 327 333 338
201 239 264 257 212 121 170 264 296 251 264 263 240 249 281 308 314 310 314 317 320 325 326 321 323 335 337 340 337 329 334 337 342 344 336 332 339 341 335 339 350 348 339 339
179 217 254 198 143 188 230 276 286 276 269 261 269 285 295 300 306 317 323 327 330 332 328 329 336 343 339 336 330 333 341 344 345 343 343 354 1 351 351 354 359 351 351 352
200 222 248 190 210 233 240 259 267 266 273 270 278 288 298 302 308 314 317 322 329 332 329 335 342 348 336 327 335 345 354 351 350 352 355 357 4 359 357 3 359 345 345 343
253 260 254 248 250 254 239 244 266 270 272 263 272 283 293 300 308 315 320 323 330 334 336 336 340 344 333 328 338 355 3 357 358 2 2 7 7 6 2 355 350 338 335 336
255 271 287 262 233 242 251 255 266 275 268 261 265 279 285 292 301 308 317 327 329 328 327 326 335 344 342 343 354 10 7 0 1 5 8 8 10 8 352 347 331 324 324 317
231 233 223 259 261 241 242 252 258 272 287 284 259 268 282 288 298 308 318 329 331 333 330 329 338 341 341 347 357 11 5 2 3 3 3 4 8 9 12 5 360 358 351 338
234 243 234 261 272 242 236 256 262 256 261 277 281 269 274 294 310 318 322 328 326 326 326 328 336 339 338 345 356 12 7 354 352 356 359 359 359 358 356 3 12 11 5 358
233 233 259 250 259 260 262 271 273 272 270 268 280 294 296 317 324 320 316 318 323 329 328 331 339 335 335 345 357 6 9 0 355 349 352 352 349 344 346 350 352 354 357 0
228 219 235 261 270 271 278 289 289 288 298 312 311 303 303 315 310 307 315 329 341 341 339 347 349 339 341 350 356 357 1 359 354 351 350 344 342 345 349 349 348 344 346 353
241 240 235 242 252 262 270 262 257 264 271 278 290 292 289 291 299 311 327 345 345 332 333 340 337 334 341 352 359 359 1 1 1 1 356 353 353 355 354 354 351 349 349 345
194 227 232 251 254 256 251 245 242 246 246 249 259 277 298 330 331 332 337 341 329 317 322 327 325 331 339 347 351 350 358 358 358 2 360 353 353 355 353 351 347 343 336 337
219 223 217 221 230 240 251 251 244 235 235 242 246 243 243 248 282 305 325 339 342 338 333 327 327 332 341 345 343 346 358 356 352 350 352 352 354 353 352 347 342 338 335 341
229 228 227 227 224 221 229 235 232 227 231 211 205 229 245 251 265 296 326 335 328 322 321 326 333 350 340 332 339 1 9 4 359 355 354 353 360 359 356 348 342 338 336 341
227 225 221 226 222 215 220 222 203 209 216 198 199 221 254 276 287 303 309 293 277 280 298 314 329 335 332 328 339 1 10 2 357 354 356 358 355 351 348 343 342 340 337 336
220 217 214 219 231 227 212 192 184 202 212 195 195 208 228 259 271 272 286 294 297 307 314 322 341 331 323 327 344 20 25 6 350 341 339 338 336 333 334 336 338 335 332 332
210 205 210 209 212 236 237 194 185 189 191 197 192 184 190 238 273 291 271 259 284 312 331 330 326 320 331 353 25 21 9 348 328 318 308 304 303 308 316 323 325 326 328 328
210 203 198 199 203 219 248 205 190 185 189 192 194 200 208 223 229 234 286 294 305 314 333 319 319 335 354 22 29 13 349 324 303 289 282 282 286 292 301 310 314 316 318 320
194 190 185 170 152 164 204 234 214 192 183 195 208 207 197 207 274 257 262 296 313 325 333 318 336 350 9 31 18 354 331 309 287 277 281 289 294 295 298 302 307 309 310 312
180 171 160 160 175 200 206 183 138 131 136 142 229 236 214 201 214 256 284 291 306 334 342 339 349 358 13 7 356 335 315 294 281 279 280 293 291 291 293 295 299 304 306 308
174 182 190 196 196 189 176 166 170 183 167 169 315 290 205 130 167 245 321 330 330 343 351 345 345 352 355 345 335 325 321 320 327 326 301 294 290 289 287 291 296 296 298 301
163 164 160 167 186 180 173 173 178 194 194 190 220 236 185 89 77 48 13 2 355 354 347 344 347 347 342 337 332 327 326 321 311 305 302 293 289 284 284 288 292 292 294 298